Location: Eschentzwiller
(47.7125°N, 7.3981°E)
Time: 00:33:15
(UTC+00:00)

YAOGAN 6 - Pass Details

Date: 27 October 2020
Orbit: 465 x 504 km, 97.0° (Epoch: 26 November)

Event Time Altitude Azimuth Distance (km) Brightness Sun altitude
Rises 16:58:37 0° 178° (S) 2,565 6.4 -7.1°
Reaches altitude 10° 17:00:43 10° 184° (S) 1,694 5.5 -7.4°
Maximum altitude 17:04:17 50° 261° (W) 644 3.7 -8.0°
Drops below altitude 10° 17:07:54 10° 338° (NNW) 1,723 5.5 -8.6°
Sets 17:10:04 0° 344° (NNW) 2,615 6.4 -9.0°
